Alamosa, CO

3:52 PM MDT on March 24, 2017 (GMT -0600)
San Luis Valley Regional / Bergman Field

Weather History for KALS - October, 2012

Change the Weather History Date:

Tuesday, October 23, 2012

  Actual Average Record
Temperature  
Mean Temperature 49 °F 40 °F  
Max Temperature 68 °F 59 °F 74 °F (2003)
Min Temperature 29 °F 22 °F 4 °F (2008)
Degree Days  
Heating Degree Days 16 25  
Month to date heating degree days 433 467  
Since 1 July heating degree days 789 898  
Cooling Degree Days 0 0  
Month to date cooling degree days 0 0  
Year to date cooling degree days 115 51  
Growing Degree Days 4 (Base 50)    
Moisture  
Dew Point 19 °F    
Average Humidity 42    
Maximum Humidity 69    
Minimum Humidity 14    
Precipitation  
Precipitation 0.00 in 0.02 in 0.60 in (2000)
Month to date precipitation 0.37 0.51  
Year to date precipitation 4.69 6.37  
Snow  
Snow 0.00 in 0.10 in 1.70 in (1972)
Month to date snowfall 0.0 1.2  
Since 1 July snowfall 0.0 1.2  
Since 1 September snowfall 0.0 1.2  
Snow Depth 0.00 in    
Sea Level Pressure  
Sea Level Pressure 29.86 in    
Wind  
Wind Speed 15 mph (SSW)    
Max Wind Speed 35 mph    
Max Gust Speed 43 mph    
Visibility 10 miles    
Events      
T = Trace of Precipitation, MM = Missing Value Source: NWS Daily Summary

Daily Weather History Graph

Daily Weather History Graph

Search for Another Location

Airport or City:

Trip Planner

Search our weather history database for the weather conditions in past years. The results will help you decide how hot, cold, wet, or windy it might be!

Date:

Astronomy

Oct. 23, 2012 Rise Set
Actual Time 7:19 AM MDT 6:15 PM MDT
Civil Twilight 6:53 AM MDT 6:41 PM MDT
Nautical Twilight 6:22 AM MDT 7:12 PM MDT
Astronomical Twilight 5:52 AM MDT 7:42 PM MDT
Moon 2:54 PM MDT (10/23) 1:21 AM MDT (10/23)
Length of Visible Light 11h 48m
Length of Day
10h 55m
Waxing Gibbous, 67% of the Moon is Illuminated
Oct 23
Waxing Gibbous
Oct 29
Full
Nov 6
Last Quarter
Nov 13
New
Nov 20
First Quarter

Hourly Weather History & Observations

Time (MDT) Temp. Windchill Dew Point Humidity Pressure Visibility Wind Dir Wind Speed Gust Speed Precip Events Conditions
12:52 AM 37.0 °F 30.4 °F 24.1 °F 59% 29.85 in 10.0 mi SW 9.2 mph - N/A   Clear
1:52 AM 30.0 °F - 21.0 °F 69% 29.88 in 10.0 mi Calm Calm - N/A   Clear
2:52 AM 30.9 °F 26.2 °F 21.9 °F 69% 29.86 in 10.0 mi SE 4.6 mph - N/A   Clear
3:52 AM 37.4 °F 30.8 °F 24.8 °F 60% 30.02 in 10.0 mi South 9.2 mph - N/A   Partly Cloudy
4:52 AM 39.9 °F 35.8 °F 27.0 °F 60% 29.84 in 10.0 mi SSE 5.8 mph - N/A   Clear
5:52 AM 44.1 °F 37.4 °F 28.0 °F 53% 29.84 in 10.0 mi South 13.8 mph - N/A   Clear
6:52 AM 42.1 °F 36.6 °F 25.0 °F 51% 29.89 in 10.0 mi South 9.2 mph - N/A   Clear
7:52 AM 42.1 °F 37.7 °F 21.9 °F 45% 29.93 in 10.0 mi SSW 6.9 mph - N/A   Clear
8:52 AM 51.8 °F - 23.0 °F 33% 30.05 in 10.0 mi South 11.5 mph - N/A   Clear
9:52 AM 55.9 °F - 19.0 °F 24% 29.89 in 10.0 mi South 21.9 mph 27.6 mph N/A   Clear
10:52 AM 60.1 °F - 18.0 °F 20% 29.87 in 10.0 mi South 17.3 mph 24.2 mph N/A   Clear
11:25 AM 64.4 °F - 15.8 °F 15% 30.02 in 3.0 mi SW 26.5 mph 36.8 mph N/A   Haze
11:52 AM 64.0 °F - 17.1 °F 16% 29.86 in 10.0 mi South 21.9 mph 27.6 mph N/A   Clear
12:52 PM 66.0 °F - 16.0 °F 15% 29.83 in 10.0 mi SW 25.3 mph 33.4 mph N/A   Partly Cloudy
1:52 PM 66.9 °F - 15.1 °F 14% 29.82 in 9.0 mi SW 25.3 mph 36.8 mph N/A   Clear
2:52 PM 64.9 °F - 17.1 °F 16% 29.81 in 5.0 mi WSW 28.8 mph 42.6 mph N/A   Haze
3:52 PM 66.0 °F - 16.0 °F 15% 29.79 in 10.0 mi West 19.6 mph 33.4 mph N/A   Clear
4:52 PM 64.9 °F - 15.1 °F 15% 29.79 in 10.0 mi SW 17.3 mph 27.6 mph N/A   Clear
5:52 PM 61.0 °F - 15.1 °F 17% 29.80 in 10.0 mi SW 18.4 mph - N/A   Clear
6:52 PM 55.9 °F - 15.1 °F 20% 29.84 in 10.0 mi SSW 12.7 mph - N/A   Clear
7:52 PM 57.9 °F - 14.0 °F 18% 29.84 in 10.0 mi SW 18.4 mph 31.1 mph N/A   Clear
8:52 PM 55.0 °F - 15.1 °F 21% 29.81 in 10.0 mi SW 19.6 mph 26.5 mph N/A   Clear
9:52 PM 52.0 °F - 15.1 °F 23% 29.81 in 10.0 mi South 13.8 mph - N/A   Clear
10:52 PM 51.1 °F - 16.0 °F 25% 29.80 in 10.0 mi South 11.5 mph - N/A   Clear
11:52 PM 48.9 °F - 17.1 °F 28% 29.78 in 10.0 mi South 13.8 mph - N/A   Clear